TimeIST,TemperatureF,Dew PointF,Humidity,Sea Level PressureIn,VisibilityMPH,Wind Direction,Wind SpeedMPH,Gust SpeedMPH,PrecipitationIn,Events,Conditions,WindDirDegrees,DateUTC
12:10 AM,84.2,77.0,79,29.83,3.7,SE,4.6,-,N/A,,Partly Cloudy,140,2013-03-29 18:40:00
12:40 AM,84.2,77.0,79,29.83,3.7,SE,4.6,-,N/A,,Partly Cloudy,140,2013-03-29 19:10:00
1:10 AM,84.2,75.2,74,29.83,3.7,SSE,4.6,-,N/A,,Partly Cloudy,150,2013-03-29 19:40:00
1:40 AM,84.2,75.2,74,29.83,3.7,SSE,4.6,-,N/A,,Partly Cloudy,150,2013-03-29 20:10:00
2:10 AM,82.4,75.2,79,29.80,3.7,SSW,4.6,-,N/A,,Partly Cloudy,200,2013-03-29 20:40:00
2:30 AM,84,76,71,29.78,2,Calm,Calm,,,,Haze,,2013-03-29 21:00:00
2:40 AM,84.2,75.2,74,29.77,3.7,Variable,2.3,-,N/A,,Partly Cloudy,0,2013-03-29 21:10:00
3:10 AM,84.2,75.2,74,29.77,3.7,Variable,2.3,-,N/A,,Partly Cloudy,0,2013-03-29 21:40:00
3:40 AM,82.4,75.2,79,29.77,3.7,Variable,2.3,-,N/A,,Partly Cloudy,0,2013-03-29 22:10:00
5:10 AM,82.4,75.2,79,29.80,2.5,Calm,Calm,-,N/A,,Haze,0,2013-03-29 23:40:00
5:30 AM,83,77,77,29.78,2,Calm,Calm,,,,Haze,,2013-03-30 00:00:00
5:40 AM,82.4,77.0,84,29.80,2.5,Calm,Calm,-,N/A,,Haze,0,2013-03-30 00:10:00
6:10 AM,82.4,77.0,84,29.80,2.5,Calm,Calm,-,N/A,,Haze,0,2013-03-30 00:40:00
6:40 AM,82.4,77.0,84,29.80,2.5,Variable,2.3,-,N/A,,Haze,0,2013-03-30 01:10:00
7:10 AM,84.2,77.0,79,29.83,2.5,Variable,2.3,-,N/A,,Haze,0,2013-03-30 01:40:00
8:10 AM,86.0,75.2,70,29.83,3.1,Variable,3.5,-,N/A,,Haze,0,2013-03-30 02:40:00
8:30 AM,90,75,53,29.82,2,,3.5,,,,Haze,,2013-03-30 03:00:00
8:40 AM,87.8,75.2,66,29.83,3.1,South,2.3,-,N/A,,Haze,180,2013-03-30 03:10:00
9:10 AM,87.8,75.2,66,29.83,3.1,SE,2.3,-,N/A,,Haze,140,2013-03-30 03:40:00
9:40 AM,89.6,75.2,62,29.80,3.7,South,3.5,-,N/A,,Scattered Clouds,190,2013-03-30 04:10:00
10:10 AM,91.4,73.4,55,29.83,5.0,WNW,2.3,-,N/A,,Scattered Clouds,290,2013-03-30 04:40:00
10:40 AM,93.2,73.4,52,29.80,5.0,South,5.8,-,N/A,,Scattered Clouds,190,2013-03-30 05:10:00
11:10 AM,93.2,73.4,52,29.80,5.0,WSW,2.3,-,N/A,,Scattered Clouds,240,2013-03-30 05:40:00
11:30 AM,94,72,39,29.80,2,South,3.5,,,,Haze,180,2013-03-30 06:00:00
11:40 AM,93.2,73.4,52,29.80,5.0,SE,5.8,-,N/A,,Scattered Clouds,140,2013-03-30 06:10:00
12:10 PM,95.0,73.4,49,29.80,5.0,East,5.8,-,N/A,,Scattered Clouds,90,2013-03-30 06:40:00
12:40 PM,95.0,73.4,49,29.77,5.0,ESE,2.3,-,N/A,,Scattered Clouds,120,2013-03-30 07:10:00
1:10 PM,96.8,71.6,44,29.77,5.0,South,3.5,-,N/A,,Scattered Clouds,180,2013-03-30 07:40:00
1:40 PM,98.6,73.4,44,29.74,5.0,West,3.5,-,N/A,,Scattered Clouds,270,2013-03-30 08:10:00
2:10 PM,98.6,73.4,44,29.71,5.0,SSW,5.8,-,N/A,,Scattered Clouds,210,2013-03-30 08:40:00
2:30 PM,99,70,30,29.70,2,SW,3.5,,,,Haze,230,2013-03-30 09:00:00
2:40 PM,98.6,71.6,42,29.71,5.0,SW,4.6,-,N/A,,Scattered Clouds,230,2013-03-30 09:10:00
3:10 PM,100.4,71.6,39,29.71,5.0,South,4.6,-,N/A,,Scattered Clouds,180,2013-03-30 09:40:00
3:40 PM,100.4,71.6,39,29.68,5.0,SW,3.5,-,N/A,,Scattered Clouds,220,2013-03-30 10:10:00
4:10 PM,98.6,71.6,42,29.68,5.0,South,4.6,-,N/A,,Scattered Clouds,190,2013-03-30 10:40:00
4:40 PM,98.6,71.6,42,29.68,5.0,SSE,5.8,-,N/A,,Scattered Clouds,160,2013-03-30 11:10:00
5:10 PM,98.6,71.6,42,29.68,5.0,SSE,8.1,-,N/A,,Partly Cloudy,160,2013-03-30 11:40:00
5:30 PM,98,69,30,29.68,2,SSE,6.9,,,,Haze,160,2013-03-30 12:00:00
5:40 PM,96.8,71.6,44,29.68,3.7,South,9.2,-,N/A,,Partly Cloudy,170,2013-03-30 12:10:00
6:10 PM,95.0,73.4,49,29.71,3.7,SSE,11.5,-,N/A,,Partly Cloudy,150,2013-03-30 12:40:00
6:40 PM,93.2,75.2,56,29.71,3.7,SSE,11.5,-,N/A,,Partly Cloudy,150,2013-03-30 13:10:00
7:10 PM,91.4,75.2,59,29.74,3.7,SSE,10.4,-,N/A,,Partly Cloudy,150,2013-03-30 13:40:00
7:40 PM,89.6,77.0,66,29.74,3.7,SSE,9.2,-,N/A,,Partly Cloudy,150,2013-03-30 14:10:00
8:10 PM,89.6,77.0,66,29.74,3.7,SSE,5.8,-,N/A,,Partly Cloudy,150,2013-03-30 14:40:00
8:30 PM,89,74,54,29.74,2,South,9.2,,,,Haze,180,2013-03-30 15:00:00
8:40 PM,87.8,75.2,66,29.74,3.7,South,11.5,-,N/A,,Partly Cloudy,170,2013-03-30 15:10:00
9:10 PM,87.8,75.2,66,29.77,3.7,SSE,8.1,-,N/A,,Partly Cloudy,160,2013-03-30 15:40:00
9:40 PM,86.0,75.2,70,29.77,3.7,SSE,8.1,-,N/A,,Partly Cloudy,160,2013-03-30 16:10:00
10:10 PM,86.0,75.2,70,29.77,3.7,SSE,6.9,-,N/A,,Partly Cloudy,150,2013-03-30 16:40:00
10:40 PM,86.0,75.2,70,29.77,3.7,SSE,5.8,-,N/A,,Partly Cloudy,150,2013-03-30 17:10:00
11:10 PM,86.0,73.4,66,29.80,3.7,SSW,5.8,-,N/A,,Partly Cloudy,210,2013-03-30 17:40:00
11:30 PM,85,74,64,29.79,2,SE,2.3,,,,Haze,140,2013-03-30 18:00:00
11:40 PM,84.2,75.2,74,29.80,3.7,SSE,4.6,-,N/A,,Partly Cloudy,160,2013-03-30 18:10:00